FW3095 Weather Reports


Display with metric or nautical units.
time (UTC)temp
F
wind
direction
speed
MPH
gust
MPH
rain 1hr
in
rain 24hr
in
rain mn
in
humidity
%
barometer
mb
20260831230029 89 261 0.0 3.0 0.00 0.00 0.00 69 987.2
20260831224527 89 259 0.0 5.0 0.00 0.00 0.00 69 987.3
20260831223034 90 198 1.0 6.0 0.00 0.00 0.00 67 987.1
20260831221524 90 272 2.0 11.0 0.00 0.00 0.00 67 987.3
20260831220027 90 259 2.0 7.0 0.00 0.00 0.00 69 987.3
20260831214523 90 210 4.0 11.0 0.00 0.00 0.00 67 987.4
20260831213023 91 196 3.0 8.0 0.00 0.00 0.00 66 987.4
20260831211534 90 220 2.0 10.0 0.00 0.00 0.00 69 987.5
20260831210020 90 210 2.0 8.0 0.00 0.00 0.00 70 987.2
20260831204518 89 206 3.0 12.0 0.00 0.00 0.00 67 987.5
20260831203017 90 212 3.0 8.0 0.00 0.00 0.00 66 987.6
20260831201516 90 220 4.0 11.0 0.00 0.00 0.00 67 987.8
20260831200016 90 198 2.0 9.0 0.00 0.00 0.00 67 987.8
20260831194518 90 217 2.0 10.0 0.00 0.00 0.00 69 988.0
20260831193012 90 157 2.0 5.0 0.00 0.00 0.00 68 988.3
20260831191509 90 131 2.0 11.0 0.00 0.00 0.00 68 988.6
20260831190010 89 271 2.0 11.0 0.00 0.00 0.00 69 988.7
20260831184507 90 238 3.0 10.0 0.00 0.00 0.00 68 988.9
20260831183003 89 151 2.0 9.0 0.00 0.00 0.00 69 989.3
20260831181604 88 263 4.0 9.0 0.00 0.00 0.00 72 989.4
20260831180101 87 228 1.0 8.0 0.00 0.00 0.00 73 989.5
20260831174555 86 258 3.0 8.0 0.00 0.00 0.00 74 989.6
20260831173057 85 246 2.0 8.0 0.00 0.00 0.00 77 989.7
20260831171553 84 239 2.0 7.0 0.00 0.00 0.00 77 989.7
20260831170052 85 236 3.0 10.0 0.00 0.00 0.00 73 989.8
20260831164550 86 173 4.0 9.0 0.00 0.00 0.00 74 989.9
20260831163049 85 231 4.0 11.0 0.00 0.00 0.00 74 990.0
20260831161547 83 273 1.0 6.0 0.00 0.00 0.00 79 990.1
20260831160042 83 214 2.0 7.0 0.00 0.00 0.00 78 990.1
20260831154543 81 223 1.0 6.0 0.00 0.00 0.00 82 989.9
20260831153038 80 232 1.0 4.0 0.00 0.00 0.00 85 989.9
20260831151532 80 220 0.0 2.0 0.00 0.00 0.00 86 989.9
20260831150030 80 175 0.0 4.0 0.00 0.00 0.00 87 989.8
20260831144525 79 226 1.0 5.0 0.00 0.00 0.00 89 990.0
20260831143024 77 155 0.0 0.0 0.00 0.00 0.00 89 989.8
20260831141521 77 223 0.0 1.0 0.00 0.00 0.00 89 989.7
20260831140024 76 214 0.0 4.0 0.00 0.00 0.00 88 989.6
20260831134516 76 226 1.0 5.0 0.00 0.00 0.00 88 989.7
20260831133013 75 264 0.0 2.0 0.00 0.00 0.00 89 989.5
20260831131508 74 147 0.0 2.0 0.00 0.00 0.00 90 989.4
20260831130006 73 150 0.0 2.0 0.00 0.00 0.00 91 989.4
20260831124501 73 150 0.0 3.0 0.00 0.00 0.00 91 989.3
20260831123100 72 156 1.0 3.0 0.00 0.00 0.00 90 989.2
20260831121559 72 148 0.0 2.0 0.00 0.00 0.00 90 989.2
20260831120105 72 157 2.0 5.0 0.00 0.00 0.00 91 988.8
20260831114555 0 0.0 0.0 0.00 0.00 0.00 988.8
20260831113052 0 0.0 0.0 0.00 0.00 0.00 988.6
20260831111550 0 0.0 0.0 0.00 0.00 0.00 988.7
20260831110045 0 0.0 0.0 0.00 0.00 0.00 988.7
20260831104542 0 0.0 0.0 0.00 0.00 0.00 988.7
20260831103034 69 162 0.0 0.0 0.00 0.00 0.00 94 988.5
20260831101531 70 162 0.0 0.0 0.00 0.00 0.00 93 988.6
20260831100031 70 158 0.0 1.0 0.00 0.00 0.00 94 988.5
20260831094528 70 137 0.0 2.0 0.00 0.00 0.00 93 988.5
20260831093026 71 149 1.0 4.0 0.00 0.00 0.00 92 988.5
20260831091537 71 132 1.0 3.0 0.00 0.00 0.00 92 988.5
20260831090028 72 146 1.0 3.0 0.00 0.00 0.00 92 988.5
20260831084523 72 139 1.0 4.0 0.00 0.00 0.00 92 988.5
20260831083022 72 145 1.0 3.0 0.00 0.00 0.00 92 988.5
20260831081534 71 153 1.0 2.0 0.00 0.00 0.00 93 988.6
20260831080050 72 153 0.0 0.0 0.00 0.00 0.00 92 988.6
20260831074520 72 152 0.0 0.0 0.00 0.00 0.00 92 988.5
20260831073051 72 153 0.0 2.0 0.00 0.00 0.00 91 988.3
20260831071520 73 153 1.0 2.0 0.00 0.00 0.00 91 988.4
20260831070020 73 153 1.0 3.0 0.00 0.00 0.00 91 988.4
20260831064519 72 146 1.0 4.0 0.00 0.00 0.00 91 988.3
20260831063024 72 139 1.0 3.0 0.00 0.00 0.00 92 988.5
20260831061517 72 136 1.0 3.0 0.00 0.00 0.00 92 988.5
20260831060017 72 135 0.0 0.0 0.00 0.00 0.00 94 988.7
20260831054515 72 135 0.0 0.0 0.00 0.00 0.00 93 988.8
20260831053010 72 135 0.0 0.0 0.00 0.00 0.00 93 988.9
20260831051508 73 135 0.0 0.0 0.00 0.00 0.00 92 988.9
20260831050007 73 135 0.0 0.0 0.00 0.00 0.00 92 988.7
20260831044503 73 135 0.0 1.0 0.00 0.00 0.00 93 988.7
20260831043102 73 135 0.0 0.0 0.00 0.00 0.00 92 988.7
20260831041607 73 135 0.0 1.0 0.00 0.00 0.00 92 988.6
20260831040052 74 135 0.0 1.0 0.00 0.00 0.00 92 988.8
20260831034553 74 135 0.0 1.0 0.00 0.00 0.00 92 988.7
20260831033051 74 135 1.0 3.0 0.00 0.00 0.00 92 988.5
20260831031550 74 139 1.0 2.0 0.00 0.00 0.00 93 988.4
20260831030055 74 140 1.0 3.0 0.00 0.00 0.00 94 988.6
20260831024549 73 137 1.0 3.0 0.00 0.00 0.00 95 988.6
20260831023048 73 138 0.0 0.0 0.00 0.00 0.00 95 988.7
20260831021550 74 137 0.0 0.0 0.00 0.00 0.00 94 989.0
20260831020047 74 137 0.0 0.0 0.00 0.00 0.00 94 988.9
20260831014547 74 137 0.0 0.0 0.00 0.00 0.00 93 989.0
20260831013147 75 138 0.0 0.0 0.00 0.00 0.00 93 988.6
20260831011549 74 137 0.0 3.0 0.00 0.00 0.00 94 988.6
20260831004543 75 229 0.0 0.0 0.00 0.00 0.00 94 988.3
20260831003050 76 229 0.0 0.0 0.00 0.00 0.00 93 988.5
20260831001542 76 229 0.0 0.0 0.00 0.00 0.00 92 988.6
20260831000040 77 229 0.0 0.0 0.00 0.00 0.00 92 988.6
20260830234539 78 229 0.0 0.0 0.00 0.00 0.00 92 988.8
20260830233039 79 229 0.0 0.0 0.00 0.00 0.00 90 988.7
20260830231539 80 229 0.0 0.0 0.00 0.00 0.00 89 988.9